Date,TemperatureHighF,TemperatureAvgF,TemperatureLowF,DewpointHighF,DewpointAvgF,DewpointLowF,HumidityHigh,HumidityAvg,HumidityLow,PressureMaxIn,PressureMinIn,WindSpeedMaxMPH,WindSpeedAvgMPH,GustSpeedMaxMPH,PrecipitationSumIn
2013-1-1,37,32,26,36,31,23,100,96,86,30.24,30.03,8,2,11,0.01
2013-1-2,36,27,21,25,20,16,89,76,53,30.26,30.17,6,1,8,0.00
2013-1-3,42,28,18,32,21,13,88,74,50,30.42,30.25,7,1,24,0.00
2013-1-4,46,33,20,28,22,16,90,66,37,30.45,30.32,10,1,14,0.00
2013-1-5,43,36,26,34,28,18,87,74,65,30.32,30.17,9,2,13,0.00
2013-1-6,45,32,22,29,22,15,91,68,34,30.36,30.23,9,2,12,0.00
2013-1-7,52,34,19,31,22,12,85,63,34,30.34,30.12,11,1,15,0.00
2013-1-8,60,41,24,47,34,18,100,77,51,30.21,30.04,8,1,13,0.08
2013-1-9,54,50,47,49,45,40,99,85,64,30.34,30.21,11,3,17,0.09
2013-1-10,61,52,47,57,48,42,95,89,74,30.22,29.82,9,4,15,0.05
2013-1-11,66,55,44,47,45,42,95,71,45,29.90,29.75,15,4,24,0.00
2013-1-12,59,45,31,52,38,27,92,78,44,29.95,29.77,14,4,19,0.25
2013-1-13,31,24,17,27,17,10,87,75,65,30.33,29.94,172,0,172,0.00
2013-1-14,33,23,15,13,10,7,76,59,37,30.44,30.30,10,1,13,0.00
2013-1-15,34,25,16,20,14,8,77,62,45,30.31,28.75,8,2,10,0.00
2013-1-16,42,27,14,21,14,8,81,61,35,30.19,30.09,7,1,11,0.00
2013-1-17,48,33,21,33,23,14,77,66,44,30.48,30.19,12,2,18,0.00
2013-1-18,57,38,21,32,24,16,86,62,31,30.50,30.21,12,2,17,0.00
2013-1-19,63,48,34,37,32,26,82,56,35,30.21,30.08,11,3,19,0.00
2013-1-20,62,43,28,38,30,17,90,63,33,30.26,30.11,14,2,17,0.00
2013-1-21,33,29,23,20,13,10,67,51,40,30.38,30.25,11,5,14,0.00
2013-1-30,33,31,31,26,25,24,78,77,75,29.85,29.79,17,9,27,0.01
2013-1-31,31,31,31,25,25,25,77,77,77,29.85,29.85,8,8,18,0.01